Location: Unspecified
(0.0000°N, 0.0000°E)
Time: 19:54:03
(UTC+00:00)

N. Korean satellite - Pass Details

Date: 16 September 2019
Orbit: 455 x 509 km, 97.2° (Epoch: 17 September)

Event Time Altitude Azimuth Distance (km) Brightness Sun altitude
Rises 05:17:10 0° 21° (NNE) 2,456 10.5 -9.5°
Reaches altitude 10° 05:19:15 10° 28° (NNE) 1,590 9.6 -8.9°
Maximum altitude 05:22:30 43° 101° (E) 651 7.8 -8.1°
Drops below altitude 10° 05:25:49 10° 174° (S) 1,617 9.3 -7.3°
Sets 05:27:57 0° 181° (S) 2,504 10.2 -6.8°
